sat.trackr.live / text

‹ back to catalog

STARLINK-5725

NORAD 55605 · 2023-020AN

PAYLOAD ACTIVE UNKNOWN

§ Identity

Operator
Country
US
Launch date
2023-02-12
Launch site
AFETR
Launch vehicle
Mass (kg)
RCS (m²)

Purposes: comms

External: N2YO · Heavens-Above · Gunter

§ Orbital elements

Epoch: 2026-09-20T21:23:33.102240Z

Period
94.27 min
Inclination
43.0057°
Eccentricity
0.0001430
Mean motion
15.27577263 rev/d
Perigee alt
482.1 km
Apogee alt
484.0 km
Semi-major
6,861.2 km
B*
-7.6130e-6
RAAN
331.7695°
Arg perigee
275.1435°
Mean anomaly
84.9253°
Rev number
19,889

§ Raw data

STARLINK-57251 55605U 23020AN  26263.89135535 -.00000472  00000+0 -76130-5 0  99922 55605  43.0057 331.7695 0001430 275.1435  84.9253 15.27577263198892

JSON: /api/v1/satellites/55605 · /tle

For live sub-satellite position, see the globe view (requires WebGL).

§ Visibility from observer

Set your observer location to see the next 7 days of passes ≥ 10°. The values pass through the URL so the page stays shareable.

No JS? Fill the form by hand. The geolocation button needs JavaScript.